Погода в Серике

Турция     36˚55′02″N   31˚06′16″E
темп.,
°C
ветер,
м/с
пор.,
м/с
влажн.,
%
обл.,
%
осадки,
мм/ч
давл.,
гПа
погр.,
м
15 января, пт
пт1500:00+7˚с45550 0.0 101191
03:00+6˚с23510 0.0 101045
06:00+6˚ссв22480 0.0 101025
09:00+7˚с22535 0.0 101028
12:00+14˚юв245020 0.0 1011944
15:00+14˚сз125244 0.0 10101034
18:00+11˚с2372100 0.0 101054
21:00+8˚с227864 0.0 101129
16 января, сб
сб1600:00+9˚с347345 0.0 101156
03:00+9˚ссз227673 0.0 100933
06:00+10˚с3369100 0.1 100870
09:00+11˚ссз1270100 0.1 100836
12:00+14˚зюз1264100 0.0 1007589
15:00+12˚с117999 0.3 1004108
18:00+12˚вюв2385100 1.0 100490
21:00+12˚ююв5108693 2.7 1003406
17 января, вс
вс1700:00+12˚ююв368390 1.6 1003164
03:00+10˚ссв348982 2.6 100264
06:00+9˚ссз2388100 0.8 100331
09:00+10˚с3470100 1.3 100585
12:00+11˚сз9125551 0.0 1006958
15:00+12˚сз8103539 0.0 10061252
18:00+8˚сз713430 0.0 1009366
21:00+6˚ссз610510 0.0 1011262
18 января, пн
пн1800:00+5˚ссз611540 0.0 1013283
03:00+4˚ссз712540 0.0 1014287
06:00+4˚ссз6105340 0.0 1015204
09:00+4˚сз595270 0.0 1018244
12:00+8˚сз683314 0.0 10181145
15:00+10˚с573012 0.0 10171136
18:00+7˚ссз4639100 0.0 1019107
21:00+6˚с5857100 0.0 1019274
19 января, вт
вт1900:00+5˚сз3467100 0.1 1018142
03:00+4˚сз3464100 0.1 101889
06:00+4˚ссз466390 0.0 1017124
09:00+3˚ссз466245 0.0 1018140
12:00+10˚сз45420 0.0 1017840
15:00+11˚сз553817 0.0 10161075
18:00+7˚ссз594833 0.0 1016192
21:00+4˚ссз595417 0.0 1019209